Location: Bas-Clignon
(44.2000°N, 6.6333°E)
Time: 03:23:37
(UTC+00:00)

Cosmos 2219 Rocket - Pass Details

Date: 03 February 2023
Orbit: 826 x 848 km, 71.0° (Epoch: 27 March)

Event Time Altitude Azimuth Distance (km) Brightness Sun altitude
Rises 18:03:14 0° 175° (S) 3,349 5.4 -14.2°
Reaches altitude 10° 18:05:53 10° 165° (SSE) 2,421 4.5 -14.7°
Maximum altitude 18:10:43 31° 104° (ESE) 1,404 2.9 -15.5°
Enters shadow 18:12:58 23° 65° (ENE) 1,685 3.2 -15.9°
